Location: Arrodets-la-Barthe
(43.0306°N, 0.2829°E)
Time: 07:03:32
(UTC+00:00)

Cosmos 2278 - Pass Details

Date: 01 June 2022
Orbit: 838 x 854 km, 71.1° (Epoch: 03 July)

Event Time Altitude Azimuth Distance (km) Brightness Sun altitude
Rises 21:52:18 0° 257° (WSW) 3,394 7.1 -18.8°
Reaches altitude 10° 21:55:48 10° 279° (W) 2,467 6.6 -19.1°
Maximum altitude 21:59:07 16° 315° (NW) 2,097 6.7 -19.4°
Drops below altitude 10° 22:02:28 10° 351° (N) 2,480 7.2 -19.7°
Sets 22:06:01 0° 14° (NNE) 3,423 7.6 -20.0°
